Location: *
(46.1006°N, 1.8394°E)
Time: 01:31:57
(UTC+00:00)

CZ-2C R/B - Pass Details

Date: 20 September 2019
Orbit: 704 x 907 km, 98.1° (Epoch: 20 October)

Event Time Altitude Azimuth Distance (km) Brightness Sun altitude
Exits shadow 19:04:56 18° 101° (E) 1,917 4.4 -12.8°
Maximum altitude 19:07:31 26° 61° (ENE) 1,608 4.3 -13.2°
Drops below altitude 10° 19:11:58 10° 8° (N) 2,503 5.8 -14.0°
Sets 19:14:46 0° 356° (N) 3,474 6.7 -14.4°
